Regional Weather Roundup
Issued by NWS Midland/Odessa, TX

Skip options and go directly to product.
Home | Oldest Version | Next Version | Current Version | All | Text Only | Save Text | Print | Product List | Glossary On

Skip product version selection by date and time.   
715
ASUS44 KMAF 260701
RWRMAF
MIDLAND AREA WEATHER ROUNDUP
NATIONAL WEATHER SERVICE MIDLAND TX
200 AM CDT TUE JUL 26 2016

...IN SOUTHWEST TEXAS AND SOUTHEAST NEW MEXICO...

CITY           SKY/WX    TMP DP  RH WIND       PRES   REMARKS
ALPINE         CLEAR     74  53  47 CALM      30.17F
ANDREWS        FAIR      82  58  43 E6        30.06F
ARTESIA        CLOUDY    75  61  60 N18       30.16R
BIG SPRING     CLEAR     83  64  52 SE13      30.04S
CARLSBAD       CLOUDY    81  61  50 N22       30.08R
DRYDEN           N/A     85  61  44 SE6       29.96S
FORT STOCKTON  CLEAR     81  59  47 S7        30.01F
GUAD PASS      CLEAR     77  52  41 E16       30.21F
HOBBS          MOCLDY    79  59  50 N21G26    30.13R
MARFA          CLEAR     72  53  51 E7        30.16F
MIDLAND AIRPK  MOCLDY    85  58  39 E9        30.03S
MIDLAND INTL   PTCLDY    85  59  41 SE14      30.02S
ODESSA         CLOUDY    86  58  38 SE12      30.03F
PECOS          CLEAR     83  56  40 E6        29.98S
PRESIDIO       FAIR      87  54  31 NE7       29.98S
SEMINOLE       CLOUDY    80  59  47 N9        30.11R
SNYDER           N/A     80  65  59 SE9       30.04R
WINK           PTCLDY    86  57  37 E12       29.99F
$$
...OTHER STATIONS IN TEXAS...

CITY           SKY/WX    TMP DP  RH WIND       PRES   REMARKS
ABILENE        CLEAR     77  68  73 S8        30.01S
AMARILLO       CLOUDY    72  59  63 W8        30.13F
AUSTIN         PTCLDY    76  76 100 CALM      29.91F
BROWNSVILLE    MOCLDY    82  77  84 S9        29.88F
CORPUS CHRISTI CLOUDY    82  78  88 S6        29.87F
DALLAS FTW     MOCLDY    79  71  76 S6        29.94S
DEL RIO        CLOUDY    83  71  67 E15G22    29.88F
EL PASO        PTCLDY    88  48  25 SE8       30.04S
HOUSTON INT    MOCLDY    78  74  87 N5        29.91R
LUBBOCK        MOCLDY    78  61  55 NW17G26   30.11R
SAN ANGELO     CLEAR     78  67  68 CALM      29.99S
SAN ANTONIO    PTCLDY    73  71  93 NW6       29.92F
WACO           CLEAR     74  71  91 CALM      29.94R
WICHITA FALLS  NOT AVBL
$$
...OTHER LOCATIONS IN NEW MEXICO...

CITY           SKY/WX    TMP DP  RH WIND       PRES   REMARKS
ALAMAGORDO     PTCLDY    79  57  47 N23       30.12R
ALBUQUERQUE    CLOUDY    74  57  55 E20G35    30.27R
CANNON AFB     CLOUDY    69  66  92 W10       30.20F
CLOVIS         CLOUDY    70  61  73 W14       30.20F
HOLLOMAN AFB   CLOUDY    77  60  55 MISG      30.10R
ROSWELL        RAIN      69  63  81 N14       30.16F
RUIDOSO          N/A     64  55  72 SE3       30.40S
SANTA FE       CLOUDY    66  57  72 SE18G32   30.34R
TRUTH OR CONSE CLOUDY    74  59  59 NE12      30.19R
TUCUMCARI      PTCLDY    69  63  81 SW10      30.15F
$$

USA.gov is the U.S. government's official web portal to all federal, state and local government web resources and services.